Location: Solstice Park, West Seattle
(47.5363°N, 122.3905°W)
Time: 09:31:48
(UTC-07:00)

ISS - Pass Details

Date: 21 May 2021
Orbit: 417 x 422 km, 51.6° (Epoch: 18 June)

Event Time Altitude Azimuth Distance (km) Brightness Sun altitude
Rises 22:25:51 0° 280° (W) 2,365 0.9 -13.1°
Reaches altitude 10° 22:28:03 10° 288° (WNW) 1,502 -0.1 -13.3°
Maximum altitude 22:31:14 39° 359° (N) 649 -2.3 -13.6°
Drops below altitude 10° 22:34:26 10° 71° (ENE) 1,505 -1.1 -14.0°
Enters shadow 22:35:42 - 76° (ENE) 1,996 -0.5 -14.1°
